Location: Unspecified
(0.0000°N, 0.0000°E)
Time: 05:09:20
(UTC+00:00)

Hubble Space Telescope - Pass Details

Date: 11 July 2024
Orbit: 509 x 513 km, 28.5° (Epoch: 24 July)

Event Time Altitude Azimuth Distance (km) Brightness Sun altitude
Exits shadow 03:34:59 14° 63° (ENE) 1,508 3.8 -34.5°
Drops below altitude 10° 03:35:50 10° 74° (ENE) 1,718 4.1 -34.3°
Sets 03:38:36 0° 93° (E) 2,604 5.1 -33.7°
